{"data":{"norad_id":64339,"intl_designator":"2025-124Y","name":"STARLINK-34017","alt_names":[],"object_type":"PAYLOAD","status":"ACTIVE","operator":null,"country":"US","launch_date":"2025-06-10","launch_site_code":"AFETR","launch_vehicle":null,"mission":null,"orbit_class":"UNKNOWN","rcs_meters":null,"size_class":null,"mass_kg":null,"dimensions":null,"purposes":["comms"],"wikipedia_slug":null,"has_3d_model":false,"image_url":null,"decayed_at":null,"tle_current":{"epoch":"2026-09-19T21:46:53.247936Z","epoch_age_seconds":185374,"freshness":"STALE","line1":"1 64339U 25124Y   26262.90756074  .00014907  00000+0  54975-3 0  9998","line2":"2 64339  43.0010 104.8498 0002079 264.4676  95.5938 15.27602308 71485","mean_motion":15.27602308,"eccentricity":0.0002079,"inclination_deg":43.001,"raan_deg":104.8498,"arg_perigee_deg":264.4676,"mean_anomaly_deg":95.5938,"bstar":0.00054975,"rev_number":7148,"period_min":94.265372110187,"perigee_km":481.55587197309,"apogee_km":484.40872537748,"semimajor_km":6861.1192986753,"source":"CELESTRAK","updated_at":"2026-09-21T09:00:35.315226Z"}}}